Location: Unspecified
(52.4292°N, 19.3359°E)
Time: 16:16:23
(UTC+02:00)

Transit 2A Rocket - Pass Details

Date: 22 May 2024
Orbit: 583 x 910 km, 66.7° (Epoch: 22 June)

Event Time Altitude Azimuth Distance (km) Brightness Sun altitude
Rises 07:14:22 0° 267° (W) 3,103 7.5 21.4°
Reaches altitude 10° 07:17:00 10° 280° (W) 2,244 6.9 21.8°
Maximum altitude 07:21:17 26° 337° (NNW) 1,519 6.5 22.4°
Drops below altitude 10° 07:25:54 10° 32° (NNE) 2,433 8.2 23.1°
Sets 07:28:53 0° 45° (NE) 3,422 9.1 23.6°
